User: anonymous   Login
Location: Unspecified
(0.0000°N, 0.0000°E)
Time: 18:52:18
(UTC+00:00)
Language:

Triad OI-1X - Orbit

View from above orbital plane
View from above orbital plane
View from above satellite
View from above satellite

Ground track
Ground track

The orbit data is extracted from the following two-line orbital elements,

1  6173U 72069A   17084.93968171 +.00000143 +00000-0 +33754-4 0  9999
2  6173 089.8703 231.4108 0053538 018.0826 094.8721 14.48783673342261
Epoch (UTC): 25 March 2017 22:33:08
Eccentricity: 0.0053538
inclination: 89.8703°
perigee height: 691 km
apogee height: 767 km
right ascension of ascending node: 231.4108°
argument of perigee: 18.0826°
revolutions per day: 14.48783673
mean anomaly at epoch: 94.8721°
orbit number at epoch: 34226

The dashed part of the orbit path shows where the satellite is in the earth's shadow,  

DLR